Regional Weather Roundup
Issued by NWS

Home | Current Version | Previous Version | Text Only | Print | Product List | Glossary Off
Versions: 1 2 3 4 5 6 7 8 9 10 11 12 13 14 15 16 17 18 19 20 21 22 23 24 25 26 27 28 29 30 31 32 33 34 35 36 37 38 39 40 41 42 43 44 45 46 47 48 49 50

000
ASUS44 KMEG 221400
RWRTN
TENNESSEE HOURLY STATE WEATHER ROUNDUP
NATIONAL WEATHER SERVICE MEMPHIS TN
900 AM CDT TUE AUG 22 2017

TNZ002-004-019-021-049-052-054-088>092-221500-
WEST TENNESSEE

CITY           SKY/WX    TMP DP  RH WIND       PRES   REMARKS
MEMPHIS INTL   MOSUNNY   82  74  76 SW7       30.06S
NWS MEMPHIS      N/A     82 N/A N/A MISG        N/A
JACKSON        MOSUNNY   82  76  81 SW9       30.06S
DYERSBURG      SUNNY     82  76  81 SW9       30.05R
$$

TNZ008-025-027-028-033-062-065-066-221500-
NORTH MIDDLE TENNESSEE

CITY           SKY/WX    TMP DP  RH WIND       PRES   REMARKS
NASHVILLE      MOSUNNY   85  73  67 SW7       30.08S HX  91
CLARKSVILLE    SUNNY     82  72  71 SW10      30.04S
SMYRNA         SUNNY     83  74  74 SE6       30.09S
CROSSVILLE     SUNNY     77  69  76 VRB5      30.17S
$$

TNZ061-075-076-078-094-096-097-221500-
SOUTH MIDDLE TENNESSEE

CITY           SKY/WX    TMP DP  RH WIND       PRES   REMARKS
$$

TNZ017-018-042-046-047-221500-
NORTHEAST TENNESSEE

CITY           SKY/WX    TMP DP  RH WIND       PRES   REMARKS
TRI CITIES     MOSUNNY   77  70  79 CALM      30.16S
$$

TNZ012-013-036-069-073-074-221500-
CENTRAL EAST TENNESSEE

CITY           SKY/WX    TMP DP  RH WIND       PRES   REMARKS
KNOXVILLE      MOSUNNY   79  70  74 VRB3      30.13S
OAK RIDGE      SUNNY     80  70  71 W5        30.14S
GATLINBURG     MOSUNNY   79  68  69 CALM      30.13S
$$

TNZ083-085-099-221500-
SOUTHEAST TENNESSEE

CITY           SKY/WX    TMP DP  RH WIND       PRES   REMARKS
CHATTANOOGA    SUNNY     81  72  74 CALM      30.12F
$$

SKY/WX REPORTED AS FAIR MEANS FEW OR NO CLOUDS BELOW
12 THOUSAND FEET.





USA.gov is the U.S. government's official web portal to all federal, state and local government web resources and services.